GW2128 Weather Reports


time (UTC)temp
C
wind
direction
speed
KPH
gust
KPH
rain 1hr
cm
rain 24hr
cm
rain mn
cm
humidity
%
barometer
mb
20260503022051 8 84 11.3 12.9 0.05 0.15 0.08 95 1014.5
20260503021551 8 163 6.4 14.5 0.03 0.15 0.08 94 1014.8
20260503021051 8 94 11.3 14.5 0.03 0.13 0.05 95 1014.3
20260503020551 8 61 4.8 6.4 0.00 0.13 0.05 94 1014.8
20260503020052 8 94 14.5 17.7 0.00 0.13 0.05 94 1014.6
20260503015551 8 79 4.8 17.7 0.00 0.10 0.05 94 1014.7
20260503015051 8 84 6.4 11.3 0.00 0.10 0.05 94 1014.6
20260503014551 8 54 9.7 12.9 0.00 0.10 0.05 94 1014.6
20260503014051 8 176 8.0 11.3 0.00 0.10 0.05 94 1014.5
20260503013551 8 91 8.0 12.9 0.00 0.10 0.05 94 1014.5
20260503013051 8 91 8.0 12.9 0.00 0.10 0.05 94 1014.8
20260503012551 8 91 8.0 11.3 0.03 0.10 0.05 94 1014.6
20260503012051 8 91 8.0 11.3 0.03 0.10 0.05 94 1014.7
20260503011551 8 96 8.0 11.3 0.03 0.10 0.05 94 1014.8
20260503011051 8 306 9.7 16.1 0.05 0.13 0.05 94 1014.7
20260503010551 8 70 4.8 6.4 0.05 0.13 0.05 94 1015.0
20260503010051 8 86 6.4 11.3 0.05 0.13 0.05 94 1014.8
20260503005551 8 101 9.7 12.9 0.05 0.05 0.05 94 1014.6
20260503005051 8 3 9.7 17.7 0.05 0.05 0.05 94 1014.8
20260503004551 8 0.0 0.0 0.05 0.05 0.05 94 1014.9
20260503004051 8 164 9.7 11.3 0.03 0.05 0.03 94 1014.7
20260503003551 8 164 9.7 20.9 0.03 0.05 0.03 94 1014.9
20260503003051 8 50 6.4 9.7 0.03 0.05 0.03 94 1014.9
20260503002551 8 91 9.7 14.5 0.00 0.03 0.00 94 1015.0
20260503002051 8 73 14.5 20.9 0.00 0.03 0.00 94 1015.1
20260503001551 8 83 12.9 16.1 0.00 0.03 0.00 94 1015.0
20260503001051 8 93 12.9 17.7 0.00 0.03 0.00 93 1015.1
20260503000551 8 0.0 0.0 0.00 0.03 0.00 93 1015.1
20260503000053 8 81 14.5 20.9 0.00 0.03 0.00 93 1015.2
20260502235551 8 81 14.5 20.9 0.00 0.03 0.00 93 1014.9
20260502235051 8 69 8.0 12.9 0.00 0.03 0.00 93 1015.1
20260502234551 8 0.0 0.0 0.00 0.03 0.00 93 1015.1
20260502234051 8 0.0 0.0 0.00 0.03 0.00 93 1015.1
20260502233551 8 74 12.9 16.1 0.00 0.03 0.00 93 1015.0
20260502233051 8 74 12.9 16.1 0.00 0.03 0.00 93 1015.2
20260502232551 8 167 11.3 17.7 0.00 0.03 0.00 93 1015.1
20260502232051 9 77 9.7 14.5 0.00 0.03 0.00 93 1015.3
20260502231551 9 111 8.0 11.3 0.00 0.03 0.00 93 1015.3
20260502231051 9 111 8.0 11.3 0.00 0.03 0.00 92 1015.5
20260502230551 9 84 11.3 16.1 0.00 0.03 0.00 92 1015.4
20260502230051 9 114 9.7 12.9 0.00 0.03 0.00 92 1015.2
20260502225551 9 73 12.9 14.5 0.00 0.03 0.00 92 1015.5
20260502225051 9 0.0 0.0 0.00 0.03 0.00 92 1015.2
20260502224551 9 55 9.7 11.3 0.00 0.03 0.00 92 1015.4
20260502224051 9 55 9.7 11.3 0.00 0.03 0.00 92 1015.4
20260502223551 9 106 11.3 20.9 0.00 0.03 0.00 91 1015.3
20260502223051 9 106 11.3 20.9 0.00 0.03 0.00 91 1015.3
20260502222551 9 198 6.4 9.7 0.00 0.03 0.00 91 1015.3
20260502222051 9 99 6.4 11.3 0.00 0.03 0.00 91 1015.3
20260502221551 9 0.0 0.0 0.00 0.03 0.00 91 1015.1
20260502221051 9 82 16.1 20.9 0.00 0.03 0.00 91 1015.0
20260502220551 9 82 16.1 20.9 0.00 0.03 0.00 91 1015.1
20260502220051 9 112 12.9 14.5 0.00 0.03 0.00 91 1015.2
20260502215551 9 92 8.0 9.7 0.00 0.10 0.00 91 1015.2
20260502215051 9 92 14.5 20.9 0.00 0.10 0.00 90 1015.0
20260502214551 9 78 14.5 16.1 0.00 0.10 0.00 90 1015.2
20260502214051 9 78 14.5 16.1 0.00 0.10 0.00 90 1015.3
20260502213551 9 73 11.3 20.9 0.00 0.10 0.00 90 1015.0
20260502213051 9 111 12.9 17.7 0.00 0.10 0.00 90 1015.5
20260502212551 9 0.0 0.0 0.00 0.10 0.00 90 1015.4
20260502212051 9 36 6.4 11.3 0.00 0.10 0.00 90 1015.2
20260502211551 10 36 6.4 11.3 0.00 0.10 0.00 90 1015.4
20260502211051 9 74 11.3 16.1 0.00 0.10 0.00 90 1015.4
20260502210551 9 66 12.9 16.1 0.00 0.10 0.00 90 1015.4
20260502210051 9 0.0 0.0 0.00 0.10 0.00 90 1015.4
20260502205551 10 0.0 0.0 0.00 0.28 0.00 89 1015.2
20260502205051 10 0.0 0.0 0.00 0.28 0.00 89 1015.2
20260502204550 10 0.0 0.0 0.00 0.28 0.00 89 1015.2
20260502204050 10 0.0 0.0 0.00 0.28 0.00 89 1015.1
20260502203550 10 0.0 0.0 0.00 0.28 0.00 88 1015.3
20260502203050 10 0.0 0.0 0.00 0.28 0.00 88 1015.0
20260502202550 10 0.0 0.0 0.00 0.28 0.00 88 1015.0
20260502202050 10 0.0 0.0 0.00 0.28 0.00 88 1015.0
20260502201550 10 0.0 0.0 0.00 0.28 0.00 88 1015.2
20260502201050 10 0.0 0.0 0.00 0.28 0.00 87 1015.1
20260502200550 10 61 4.8 6.4 0.00 0.28 0.00 87 1015.0
20260502200050 10 61 4.8 6.4 0.00 0.28 0.00 86 1015.0
20260502195550 10 0.0 0.0 0.00 0.28 0.00 86 1015.0
20260502195050 10 0.0 0.0 0.00 0.28 0.00 85 1015.0
20260502194550 10 0.0 0.0 0.00 0.28 0.00 85 1014.9
20260502194050 10 0.0 0.0 0.00 0.28 0.00 85 1014.8
20260502193550 10 73 9.7 12.9 0.00 0.28 0.00 85 1014.9
20260502193050 10 73 9.7 12.9 0.00 0.28 0.00 84 1014.7
20260502192550 10 69 11.3 14.5 0.00 0.28 0.00 84 1014.6
20260502192050 10 0.0 0.0 0.00 0.28 0.00 84 1014.5
20260502191550 10 0.0 0.0 0.00 0.28 0.00 84 1014.4
20260502191050 10 0.0 0.0 0.00 0.28 0.00 84 1014.4
20260502190550 10 159 8.0 9.7 0.00 0.28 0.00 84 1014.1
20260502190050 11 159 8.0 9.7 0.00 0.28 0.00 84 1014.2
20260502185550 11 136 3.2 3.2 0.00 0.30 0.00 83 1014.2
20260502185050 11 105 8.0 12.9 0.00 0.30 0.00 83 1014.4
20260502184550 11 38 8.0 11.3 0.00 0.30 0.00 83 1014.3
20260502184050 11 95 12.9 14.5 0.00 0.30 0.00 82 1014.1
20260502183550 11 47 4.8 9.7 0.00 0.30 0.00 81 1014.0
20260502183050 11 155 4.8 9.7 0.00 0.30 0.00 81 1014.0
20260502182550 12 155 4.8 9.7 0.00 0.30 0.00 80 1014.0
20260502182050 12 72 6.4 9.7 0.00 0.30 0.00 79 1013.9
20260502181550 12 45 1.6 3.2 0.00 0.30 0.00 78 1014.1
20260502181050 12 45 1.6 6.4 0.00 0.30 0.00 78 1014.0
20260502180550 13 92 4.8 9.7 0.00 0.30 0.00 77 1014.1
20260502164050 16 201 3.2 4.8 0.00 0.81 0.00 71 1013.4
20260502163550 16 152 1.6 3.2 0.00 0.81 0.00 71 1013.3
20260502163050 17 248 3.2 3.2 0.00 0.81 0.00 70 1013.4
20260502162550 17 312 3.2 3.2 0.00 0.81 0.00 71 1013.4
20260502162050 17 214 3.2 4.8 0.00 0.81 0.00 71 1013.4
20260502161550 17 146 1.6 3.2 0.00 0.81 0.00 70 1013.3
20260502161050 17 143 3.2 6.4 0.00 0.81 0.00 70 1013.7
20260502160550 17 244 3.2 3.2 0.00 0.81 0.00 70 1013.4
20260502152050 17 81 1.6 3.2 0.00 0.81 0.00 73 1013.1
20260502151550 17 153 1.6 1.6 0.00 0.81 0.00 73 1013.4
20260502151050 17 161 0.0 0.0 0.00 0.81 0.00 73 1013.2
20260502150552 17 232 1.6 3.2 0.00 0.81 0.00 73 1013.4
20260502130549 17 150 0.0 1.6 0.00 0.89 0.00 74 1013.8
20260502123549 17 154 3.2 3.2 0.00 0.89 0.00 70 1014.1
20260502123049 17 75 3.2 3.2 0.00 0.89 0.00 70 1014.1
20260502122549 17 194 1.6 1.6 0.00 0.89 0.00 70 1014.0
20260502122049 17 194 1.6 1.6 0.00 0.89 0.00 68 1013.8
20260502121549 18 107 1.6 3.2 0.00 0.89 0.00 68 1013.8
20260502121049 18 188 0.0 1.6 0.00 0.89 0.00 66 1013.9
20260502120549 19 156 1.6 3.2 0.00 0.89 0.00 65 1014.0
20260502115549 21 180 1.6 4.8 0.00 0.89 0.00 65 1014.0
20260502115049 21 168 1.6 3.2 0.00 0.89 0.00 65 1014.2
20260502114049 21 192 0.0 1.6 0.00 0.89 0.00 68 1014.2
20260502113549 21 192 0.0 1.6 0.00 0.89 0.00 70 1014.0
20260502113049 20 24 0.0 1.6 0.00 0.89 0.00 71 1014.3
20260502112549 20 177 1.6 4.8 0.00 0.89 0.00 73 1014.1
20260502112049 19 290 3.2 3.2 0.00 0.89 0.00 74 1014.3
20260502111549 18 37 1.6 3.2 0.00 0.89 0.00 74 1014.2
20260502111049 17 204 3.2 4.8 0.00 0.89 0.00 75 1014.1
20260502110549 17 296 3.2 4.8 0.00 0.89 0.00 75 1014.2
20260502110049 17 296 3.2 4.8 0.00 0.89 0.00 75 1014.3
20260502105549 17 185 1.6 1.6 0.00 0.89 0.00 75 1014.3
20260502105049 17 187 0.0 1.6 0.00 0.89 0.00 76 1014.4
20260502104549 17 212 3.2 4.8 0.00 0.89 0.00 75 1014.3
20260502104049 17 295 4.8 9.7 0.00 0.89 0.00 75 1014.4
20260502103549 17 273 1.6 3.2 0.00 0.89 0.00 75 1014.4
20260502103049 17 297 1.6 3.2 0.00 0.89 0.00 76 1014.4
20260502102549 17 91 1.6 1.6 0.00 0.89 0.00 77 1014.6
20260502102049 17 329 1.6 4.8 0.00 0.89 0.00 77 1014.5
20260502101049 17 278 3.2 4.8 0.00 0.89 0.00 78 1014.5
20260502100549 16 168 3.2 3.2 0.00 0.89 0.00 77 1014.7
20260502091049 16 186 3.2 3.2 0.00 0.89 0.00 81 1014.4
20260502090549 16 164 3.2 3.2 0.00 0.89 0.00 82 1014.4
20260502071048 12 250 0.0 1.6 0.00 0.89 0.00 93 1014.8
20260502070548 12 250 0.0 1.6 0.00 0.89 0.00 93 1014.7
20260502070049 12 132 1.6 1.6 0.00 0.89 0.00 93 1014.7
20260502065548 12 9 1.6 3.2 0.00 0.86 0.00 93 1014.7
20260502065048 12 26 1.6 1.6 0.00 0.86 0.00 94 1014.7
20260502064548 12 46 1.6 1.6 0.00 0.86 0.00 94 1014.7
20260502064048 11 197 1.6 1.6 0.00 0.86 0.00 94 1014.8
20260502063548 11 152 0.0 1.6 0.00 0.86 0.00 94 1014.8
20260502063048 11 152 0.0 1.6 0.00 0.86 0.00 94 1014.6
20260502062548 11 247 1.6 1.6 0.00 0.86 0.00 94 1014.7
20260502062048 10 247 1.6 1.6 0.00 0.86 0.00 94 1014.7
20260502061548 10 193 1.6 3.2 0.00 0.86 0.00 94 1014.9
20260502061048 10 81 1.6 1.6 0.00 0.86 0.00 94 1014.6
20260502060548 10 108 1.6 1.6 0.00 0.86 0.00 94 1014.5
20260502060048 9 140 1.6 1.6 0.00 0.86 0.00 94 1014.5
20260502055548 9 140 1.6 1.6 0.00 0.86 0.00 94 1014.5
20260502055048 9 0.0 0.0 0.00 0.86 0.00 94 1014.4
20260502054548 9 0.0 0.0 0.00 0.86 0.00 94 1014.4
20260502054048 9 0.0 0.0 0.00 0.86 0.00 94 1014.5
20260502053548 9 229 3.2 4.8 0.00 0.86 0.00 94 1014.3
20260502053048 9 229 3.2 4.8 0.00 0.86 0.00 94 1014.4
20260502052548 9 121 1.6 1.6 0.00 0.86 0.00 94 1014.3
20260502052048 9 121 1.6 1.6 0.00 0.86 0.00 94 1014.3
20260502051548 9 92 3.2 6.4 0.00 0.86 0.00 94 1014.6
20260502051048 9 92 3.2 6.4 0.00 0.86 0.00 94 1014.5
20260502050548 9 220 1.6 3.2 0.00 0.86 0.00 94 1014.2
20260502050048 9 220 1.6 3.2 0.00 0.86 0.00 94 1014.6
20260502045548 9 98 0.0 0.0 0.00 0.86 0.00 94 1014.5
20260502045048 9 224 1.6 3.2 0.00 0.86 0.00 94 1014.3
20260502044548 9 142 3.2 4.8 0.00 0.86 0.00 94 1014.3
20260502044048 9 302 1.6 3.2 0.00 0.86 0.00 94 1014.1
20260502043548 9 90 1.6 3.2 0.00 0.86 0.00 94 1014.4
20260502043050 9 187 1.6 1.6 0.00 0.86 0.00 94 1014.1
20260502042548 9 187 1.6 1.6 0.00 0.86 0.00 94 1014.1
20260502042048 9 0.0 0.0 0.00 0.86 0.00 94 1014.2
20260502041548 9 151 1.6 1.6 0.00 0.86 0.00 94 1014.1
20260502041048 9 151 1.6 1.6 0.00 0.86 0.00 94 1014.3
20260502040548 9 71 1.6 4.8 0.00 0.86 0.00 94 1014.3
20260502040048 9 71 1.6 4.8 0.00 0.86 0.00 94 1014.4
20260502035548 9 57 0.0 1.6 0.00 0.86 0.00 94 1014.4
20260502035048 9 181 4.8 6.4 0.00 0.86 0.00 94 1014.6
20260502034550 9 16 3.2 3.2 0.00 0.86 0.00 94 1014.5
20260502034048 9 0.0 0.0 0.00 0.86 0.00 94 1014.4
20260502033548 9 0.0 0.0 0.00 0.86 0.00 94 1014.8
20260502033048 9 172 3.2 4.8 0.00 0.86 0.00 94 1014.6
20260502032548 9 172 3.2 4.8 0.00 0.86 0.00 94 1014.8
20260502032048 9 0.0 0.0 0.00 0.86 0.00 94 1014.5
20260502031548 9 169 4.8 6.4 0.00 0.86 0.00 94 1014.5
20260502031048 10 169 4.8 6.4 0.00 0.86 0.00 94 1014.5
20260502030548 9 246 1.6 3.2 0.00 0.86 0.00 94 1014.7
20260502030048 9 246 1.6 3.2 0.00 0.86 0.00 94 1014.5
20260502025550 9 163 1.6 1.6 0.00 0.86 0.00 94 1014.7
20260502025048 9 0.0 0.0 0.00 0.86 0.00 94 1014.9
20260502024548 9 156 0.0 1.6 0.00 0.86 0.00 94 1015.0
20260502024048 9 156 0.0 1.6 0.00 0.86 0.00 94 1014.9
20260502023548 9 36 1.6 3.2 0.00 0.86 0.00 94 1014.8
20260502023048 9 36 1.6 3.2 0.00 0.86 0.00 94 1014.8
20260502022548 9 113 1.6 4.8 0.00 0.86 0.00 94 1014.7